Location: Fisheating Creek Campgrounds
(26.9333°N, 81.3167°W)
Time: 16:08:39
(UTC-04:00)

Daily predictions for brighter satellites

Satellite Brightness Start Highest point End
(mag) Time Altitude Azimuth Time Altitude Azimuth Time Altitude Azimuth
ATLAS 2A CENTAUR R/B 4.4 19:11:47 10° W 19:18:22 89° S 20:06:16 10° E
Meteosat 1 Rocket2 4.1 20:13:23 10° SW 20:17:42 40° SSE 20:23:57 10° E
Cosmos 2322 Rocket 3.3 20:16:05 10° SSE 20:20:14 21° E 20:24:24 10° NE
Cosmos 1437 4.3 20:17:17 10° NNW 20:20:20 40° W 20:23:23 10° SSW
ERBS 3.4 20:17:08 10° SW 20:20:30 50° NW 20:23:53 10° NNE
GOES 2 Rocket 3.6 20:16:48 10° W 20:23:01 88° N 20:27:48 10° E
Cosmos 1378 Rocket 3.7 20:19:04 10° N 20:23:23 53° E 20:27:41 10° SSE
Cosmos 921 Rocket 2.9 20:19:43 10° S 20:23:50 60° E 20:27:57 10° NNE
FENGYUN 3A 3.7 20:18:30 10° SSE 20:23:53 90° NE 20:29:16 10° NNW
Cosmos 1461 3.2 20:22:19 10° NNW 20:26:48 60° ENE 20:31:22 10° SE
Meteor 1-20 Rocket 4.2 20:24:21 10° S 20:29:55 68° E 20:35:24 10° NNE
SL-16 R/B 3.1 20:25:29 10° SSE 20:30:06 26° ESE 20:34:44 10° NE
ALOS 2.9 20:30:07 10° S 20:34:42 59° W 20:39:19 10° NNW
USA 267 3.4 20:30:24 10° SE 20:36:51 64° NE 20:43:19 10° NNW
Cosmos 1441 Rocket 3.7 20:35:01 10° NNE 20:38:30 37° E 20:41:59 10° SSE
Skynet4D Del rocket 4.1 20:32:01 10° WSW 20:39:17 83° S 20:45:29 10° E
OAO 1 Rocket 4.4 20:34:43 10° WSW 20:40:03 79° SSE 20:45:25 10° ENE
GPS 2-12 Rocket1 4.0 20:37:42 10° WSW 20:41:45 32° S 20:44:57 14° ESE
Cosmos 1975 Rocket 3.4 20:37:33 10° N 20:41:49 44° E 20:46:01 10° SSE
FengYun 1-2 T 4.3 20:36:15 10° SSE 20:41:52 86° ENE 20:47:32 10° NNW
Helios 1B rocket 4.3 20:40:26 10° ENE 20:41:42 12° E 20:41:42 12° E
Cosmos 2026 Rocket 4.0 20:36:22 10° S 20:42:35 71° E 20:48:55 10° N
Cosmos 405 Rocket 2.7 20:39:50 10° N 20:43:42 82° E 20:47:37 10° S
CZ-4C R/B 3.0 20:37:50 10° NNW 20:45:25 75° ENE 20:53:30 10° SSE
Cosmos 1655 Rocket 4.1 20:41:30 10° SSE 20:47:33 56° E 20:53:41 10° NNE
Cosmos 1633 2.4 20:50:29 10° S 20:54:04 86° E 20:57:41 10° N
Cosmos 2360 Rocket 3.8 20:56:27 14° E 20:56:27 14° E 20:58:08 10° ENE
Cosmos 1980 Rocket 3.3 20:50:28 10° SW 20:55:50 47° WNW 21:01:13 10° N
Cosmos 839 Rocket 4.3 20:49:39 10° SSW 20:56:16 74° WNW 21:02:25 10° NNE
Cosmos 2227 Rocket 3.8 20:51:58 10° NW 20:57:05 36° WSW 21:02:11 10° SSW
ATLAS 2AS CENTAUR R/B 3.3 20:51:06 10° S 20:57:47 40° ESE 21:04:59 10° NE
SEDSat Delta rocket 4.0 20:52:28 10° WNW 20:59:19 85° NNE 21:04:04 20° ESE
Cosmos 1452 Rocket 3.6 20:54:35 10° SSW 20:59:51 82° WNW 21:05:09 10° NNE
BREEZE M DEB (TANK) 4.2 20:39:52 10° SW 21:00:08 66° SE 21:04:47 10° NE
USA 186 2.1 21:00:42 23° SE 21:02:27 47° ENE 21:05:42 10° N
CZ-2D R/B 3.2 20:59:17 10° SSE 21:03:09 81° ENE 21:07:01 10° N
Cosmos 1420 Rocket 3.9 20:59:01 10° S 21:04:09 72° ESE 21:09:19 10° NNE
NOSS 2-3 (E) 3.6 21:04:47 10° SSW 21:09:15 66° ESE 21:14:06 10° NE
Okean 2 Rocket 3.9 21:05:21 10° SSW 21:09:42 53° W 21:14:06 10° N
Atlas Centaur 2 3.1 21:04:57 10° W 21:13:13 68° N 21:18:37 18° ENE
Cosmos 407 Rocket 3.5 21:08:30 10° NNW 21:13:52 86° ENE 21:18:14 15° SSE
Cosmos 1190 Rocket 4.1 21:11:21 10° NNW 21:16:37 78° WSW 21:21:25 13° S
Cosmos 44 Rocket 3.9 21:15:38 10° N 21:20:04 37° ENE 21:21:13 32° E
ASC 2 Rocket 4.4 21:16:48 10° W 21:23:17 40° SSW 21:25:23 28° SSE
OAO 3 Rocket 4.1 21:21:47 10° W 21:26:10 37° SSW 21:27:52 28° SSE
Resurs 1-3 3.9 21:22:37 14° S 21:26:19 68° WSW 21:30:41 10° NNW
Cosmos 676 Rocket 3.9 21:27:36 10° NNW 21:32:57 84° ENE 21:35:26 33° SSE
Cosmos 2227 4.1 21:29:28 10° NNW 21:35:05 66° ENE 21:36:59 41° SE
Meteor 1-11 Rocket 3.8 21:29:46 10° S 21:35:41 85° W 21:41:31 10° N
Spot 2 Rocket 4.0 21:34:03 14° S 21:38:25 58° WSW 21:43:27 10° NNW
Cosmos 1023 Rocket 4.5 21:33:28 10° N 21:38:41 64° ENE 21:39:52 49° SE
Palapa 6 Rocket 4.0 21:34:19 10° W 21:39:52 56° S 21:41:41 42° SE
Delta 2 Rocket 3.7 21:36:11 10° WSW 21:40:18 68° NNW 21:41:54 38° NE
SeaSat 1 4.4 21:36:07 10° N 21:40:23 30° WNW 21:44:39 10° WSW
NOSS 2-3 (C) 4.5 21:38:28 10° SW 21:42:54 53° WNW 21:47:45 10° NNE
Cosmos 1140 Rocket 3.3 21:43:50 10° NNW 21:49:05 81° ENE 21:50:02 60° SSE
Lacrosse 5 2.1 21:45:30 10° SW 21:50:33 70° NW 21:55:37 10° NNE
H-2A ROCKET BODY 3.5 21:47:54 10° WSW 21:50:00 21° SSW 21:50:00 21° SSW
Resurs 01 Rocket 3.6 21:51:17 10° SSW 21:55:00 26° W 21:58:44 10° NW
Cosmos 1954 Rocket 4.2 21:49:58 10° NNW 21:55:17 71° WSW 21:56:45 47° S
Cosmos 614 Rocket 3.7 21:51:57 10° NNW 21:57:05 82° ENE 21:57:22 78° SE
Cosmos 1939 Rocket 3.3 21:57:18 57° WSW 21:57:23 57° W 22:01:19 10° NNW
Okean 1 Rocket 3.6 21:58:32 50° NNE 21:58:32 50° NNE 22:01:47 10° N
S3M 4.2 21:52:01 10° N 21:58:17 72° W 22:01:48 28° S
H-2A R/B 4.2 22:00:55 13° NE 22:00:55 13° NE 22:01:50 10° NNE
Cosmos 2266 Rocket 3.9 21:55:29 19° S 21:59:56 80° W 22:05:59 10° N
Cosmos 1553 Rocket 4.4 21:55:17 10° NNW 22:01:18 60° W 22:04:55 24° SSW
ARGOS 4.4 22:04:28 27° NE 22:04:28 27° NE 22:07:32 10° N
Cosmos 2322 Rocket 3.7 21:58:43 10° SW 22:03:56 37° WNW 22:09:10 10° N
Cosmos 1300 Rocket 4.4 22:03:01 35° SW 22:04:18 47° W 22:08:27 10° N
ERS-1 Rocket 3.8 22:06:15 38° NNE 22:06:15 38° NNE 22:09:43 10° N
Nadezhda 2 Rocket 4.4 22:05:18 60° ENE 22:05:18 60° ENE 22:11:02 10° NNE
Cosmos 1536 3.9 22:06:18 40° WSW 22:06:49 42° W 22:10:41 10° N
Cosmos 44 3.4 22:02:51 10° NNW 22:06:54 65° WNW 22:06:54 65° WNW
Envisat 4.3 22:04:44 21° SSW 22:07:29 36° W 22:12:09 10° NNW
Cosmos 1741 Rocket 4.4 22:03:57 10° N 22:08:14 53° NNE 22:08:14 53° NNE
Meteor 1-23 Rocket 4.4 22:05:54 10° N 22:10:35 57° NE 22:10:35 57° NE
Cosmos 2263 Rocket 2.9 22:07:35 10° N 22:11:55 41° NE 22:11:55 41° NE
SL-16 R/B 4.0 22:09:07 10° SW 22:13:59 29° WNW 22:18:53 10° N
Helios 1B rocket 4.0 22:13:37 10° N 22:17:18 33° WNW 22:18:03 31° W
Lacrosse 5 rocket 3.1 22:13:59 10° NW 22:15:50 28° NW 22:15:50 28° NW
Meteosat 1 Rocket2 4.1 22:12:34 10° W 22:18:29 88° N 22:19:56 63° ENE
ATLAS 3B R/B 4.2 22:19:56 10° N 22:23:52 20° NE 22:23:52 20° NE
Skynet4D Del rocket 4.1 22:25:32 10° W 22:31:07 65° W 22:31:07 65° W
Cosmos 2360 Rocket 2.9 22:37:59 47° W 22:38:34 49° WNW 22:44:00 10° N
ATLAS 2AS CENTAUR R/B 4.3 22:41:56 10° WSW 22:48:44 36° NW 22:55:59 10° N
Atlas Centaur 2 3.3 22:55:39 10° WNW 23:01:14 50° WNW 23:01:14 50° WNW
